Location: Courcelles
(49.2596°N, 1.7419°E)
Time: 07:04:23
(UTC+00:00)

Cosmos 676 Rocket - Pass Details

Date: 17 November 2025
Orbit: 750 x 779 km, 74.0° (Epoch: 06 December)

Event Time Altitude Azimuth Distance (km) Brightness Sun altitude
Rises 18:35:00 0° 197° (SSW) 3,249 7.5 -23.6°
Reaches altitude 10° 18:37:22 10° 196° (SSW) 2,325 6.7 -24.0°
Maximum altitude 18:42:39 79° 111° (ESE) 798 3.8 -24.8°
Enters shadow 18:43:13 69° 53° (NE) 833 3.9 -24.9°
